Location: Acton
(51.4942°N, 0.2232°W)
Time: 12:42:18
(UTC+00:00)

Okean 1-7 Rocket - Pass Details

Date: 25 January 2021
Orbit: 615 x 650 km, 82.5° (Epoch: 28 February)

Event Time Altitude Azimuth Distance (km) Brightness Sun altitude
Rises 17:45:08 0° 184° (S) 2,951 7.3 -10.3°
Reaches altitude 10° 17:47:22 10° 183° (S) 2,049 6.5 -10.7°
Maximum altitude 17:51:55 76° 99° (E) 675 3.6 -11.4°
Drops below altitude 10° 17:56:31 10° 13° (NNE) 2,068 6.0 -12.0°
Sets 17:58:47 0° 12° (NNE) 2,982 6.8 -12.4°
